User: anonymous   Login
Location: ????????
(55.6189°N, 38.3031°E)
Time: 14:46:55
(UTC+00:00)
Language:

Cosmos 2084 Rocket - Orbit

View from above orbital plane
View from above orbital plane
View from above satellite
View from above satellite

Ground track
Ground track

The orbit data is extracted from the following two-line orbital elements,

1 20666U 90055D   20024.56825787 -.00000084 +00000-0 +96923-5 0  9992
2 20666 062.7848 208.6810 0027353 293.5836 066.2385 14.92302273603673
Epoch (UTC): 24 January 2020 13:38:17
Eccentricity: 0.0027353
inclination: 62.7848°
perigee height: 572 km
apogee height: 610 km
right ascension of ascending node: 208.6810°
argument of perigee: 293.5836°
revolutions per day: 14.92302273
mean anomaly at epoch: 66.2385°
orbit number at epoch: 60367

The dashed part of the orbit path shows where the satellite is in the earth's shadow,  

DLR